Rotterdam, Netherlands

9:45 AM CEST on July 28, 2017 (GMT +0200)
Rotterdam

Weather History for EHRD - May, 2012

Change the Weather History Date:

Friday, May 25, 2012

  Actual Average Record
Temperature  
Mean Temperature 70 °F -  
Max Temperature 80 °F 65 °F 80 °F (2012)
Min Temperature 59 °F 50 °F 38 °F (2013)
Cooling Degree Days 4    
Growing Degree Days 20 (Base 50)    
Moisture  
Dew Point 47 °F    
Average Humidity 45    
Maximum Humidity 78    
Minimum Humidity 20    
Precipitation  
Precipitation 0.00 in - - ()
Sea Level Pressure  
Sea Level Pressure 30.26 in    
Wind  
Wind Speed 13 mph ()    
Max Wind Speed 24 mph    
Max Gust Speed 32 mph    
Visibility 7.0 miles    
Events      
Averages and records for this station are not official NWS values.
T = Trace of Precipitation, MM = Missing Value Source: Averaged Metar Reports

Daily Weather History Graph

Daily Weather History Graph

Search for Another Location

Airport or City:

Trip Planner

Search our weather history database for the weather conditions in past years. The results will help you decide how hot, cold, wet, or windy it might be!

Date:

Astronomy

May. 25, 2012 Rise Set
Actual Time 5:34 AM CEST 9:44 PM CEST
Civil Twilight 4:50 AM CEST 10:29 PM CEST
Nautical Twilight 3:45 AM CEST 11:34 PM CEST
Astronomical Twilight 2:11 AM CEST 1:06 AM CEST
Moon 9:27 AM CEST (5/25) 12:26 AM CEST (5/25)
Length of Visible Light 17h 39m
Length of Day
16h 09m
Waxing Crescent, 17% of the Moon is Illuminated
May 25
Waxing Crescent
May 28
First Quarter
Jun 4
Full
Jun 11
Last Quarter
Jun 19
New

Hourly Weather History & Observations

Time (CEST) Temp. Dew Point Humidity Pressure Visibility Wind Dir Wind Speed Gust Speed Precip Events Conditions
12:25 AM 69.8 °F 48.2 °F 46% 30.27 in 6.2 mi East 11.5 mph - N/A   Unknown
12:55 AM 66.2 °F 48.2 °F 52% 30.30 in 6.2 mi East 9.2 mph - N/A   Unknown
1:25 AM 66.2 °F 48.2 °F 52% 30.27 in 6.2 mi East 10.4 mph - N/A   Unknown
1:55 AM 66.2 °F 48.2 °F 52% 30.27 in 6.2 mi East 11.5 mph - N/A   Unknown
2:00 AM 65 °F 48 °F 43% 30.30 in 28 mi East 11.2 mph - -  
2:25 AM 66.2 °F 48.2 °F 52% 30.27 in 6.2 mi East 11.5 mph - N/A   Unknown
2:55 AM 64.4 °F 46.4 °F 52% 30.27 in 6.2 mi East 11.5 mph - N/A   Unknown
3:25 AM 64.4 °F 46.4 °F 52% 30.27 in 6.2 mi East 11.5 mph - N/A   Unknown
3:55 AM 64.4 °F 46.4 °F 52% 30.27 in 6.2 mi East 12.7 mph - N/A   Unknown
4:25 AM 62.6 °F 46.4 °F 55% 30.27 in 6.2 mi East 12.7 mph - N/A   Unknown
4:55 AM 62.6 °F 46.4 °F 55% 30.27 in 6.2 mi East 12.7 mph - N/A   Unknown
5:00 AM 62 °F 46 °F 44% 30.30 in 28 mi East 11.2 mph - -  
5:25 AM 60.8 °F 44.6 °F 55% 30.30 in 6.2 mi East 12.7 mph - N/A   Unknown
5:55 AM 60.8 °F 44.6 °F 55% 30.30 in 6.2 mi East 12.7 mph - N/A   Unknown
6:25 AM 60.8 °F 44.6 °F 55% 30.30 in 6.2 mi East 12.7 mph - N/A   Unknown
6:55 AM 60.8 °F 44.6 °F 55% 30.30 in 6.2 mi East 13.8 mph - N/A   Unknown
7:25 AM 60.8 °F 44.6 °F 55% 30.30 in 6.2 mi East 13.8 mph - N/A   Unknown
7:55 AM 62.6 °F 44.6 °F 52% 30.30 in 6.2 mi East 15.0 mph - N/A   Unknown
8:00 AM 63 °F 45 °F 40% 30.32 in 25 mi East 15.7 mph - -  
8:25 AM 62.6 °F 44.6 °F 52% 30.30 in 6.2 mi East 16.1 mph - N/A   Unknown
8:55 AM 64.4 °F 44.6 °F 49% 30.30 in 6.2 mi East 15.0 mph - N/A   Unknown
9:25 AM 66.2 °F 46.4 °F 49% 30.30 in 6.2 mi East 15.0 mph - N/A   Unknown
9:55 AM 68.0 °F 46.4 °F 46% 30.30 in 6.2 mi East 13.8 mph - N/A   Unknown
10:25 AM 69.8 °F 46.4 °F 43% 30.30 in 6.2 mi East 13.8 mph - N/A   Unknown
10:55 AM 71.6 °F 48.2 °F 43% 30.30 in 6.2 mi East 12.7 mph - N/A   Unknown
11:00 AM 72 °F 48 °F 31% 30.32 in 19 mi East 13.4 mph - -   Scattered Clouds
11:25 AM 71.6 °F 46.4 °F 41% 30.30 in 6.2 mi East 19.6 mph - N/A   Unknown
11:55 AM 73.4 °F 37.4 °F 27% 30.30 in 6.2 mi East 17.3 mph - N/A   Unknown
12:25 PM 75.2 °F 39.2 °F 27% 30.30 in 6.2 mi East 19.6 mph - N/A   Unknown
12:55 PM 75.2 °F 42.8 °F 31% 30.30 in 6.2 mi East 23.0 mph - N/A   Unknown
1:25 PM 75.2 °F 44.6 °F 34% 30.27 in 6.2 mi East 20.7 mph 32.2 mph N/A   Unknown
1:55 PM 77.0 °F 44.6 °F 32% 30.27 in 6.2 mi East 19.6 mph 32.2 mph N/A   Unknown
2:00 PM 78 °F 46 °F 21% 30.29 in 22 mi East 22.4 mph - -   Scattered Clouds
2:25 PM 77.0 °F 44.6 °F 32% 30.27 in 6.2 mi East 23.0 mph - N/A   Unknown
2:55 PM 78.8 °F 46.4 °F 32% 30.27 in 6.2 mi East 20.7 mph - N/A   Unknown
3:25 PM 78.8 °F 46.4 °F 32% 30.24 in 6.2 mi East 17.3 mph - N/A   Unknown
3:55 PM 78.8 °F 46.4 °F 32% 30.24 in 6.2 mi ENE 20.7 mph - N/A   Unknown
4:25 PM 78.8 °F 46.4 °F 32% 30.24 in 6.2 mi East 20.7 mph - N/A   Unknown
4:55 PM 78.8 °F 44.6 °F 30% 30.24 in 6.2 mi East 20.7 mph 32.2 mph N/A   Unknown
5:00 PM 79 °F 46 °F 20% 30.24 in 19 mi East 20.1 mph - -  
5:25 PM 78.8 °F 44.6 °F 30% 30.21 in 6.2 mi ENE 24.2 mph - N/A   Unknown
5:55 PM 78.8 °F 46.4 °F 32% 30.21 in 6.2 mi East 20.7 mph - N/A   Unknown
6:25 PM 78.8 °F 46.4 °F 32% 30.21 in 6.2 mi ENE 19.6 mph 32.2 mph N/A   Unknown
6:55 PM 77.0 °F 48.2 °F 36% 30.21 in 6.2 mi ENE 20.7 mph - N/A   Unknown
7:25 PM 77.0 °F 48.2 °F 36% 30.18 in 6.2 mi ENE 19.6 mph - N/A   Unknown
7:55 PM 77.0 °F 48.2 °F 36% 30.18 in 6.2 mi ENE 21.9 mph - N/A   Unknown
8:00 PM 76 °F 47 °F 26% 30.21 in 28 mi ENE 17.9 mph - -  
8:25 PM 75.2 °F 50.0 °F 41% 30.18 in 6.2 mi ENE 15.0 mph 26.5 mph N/A   Unknown
8:55 PM 73.4 °F 50.0 °F 44% 30.18 in 6.2 mi ENE 15.0 mph - N/A   Unknown
9:25 PM 69.8 °F 57.2 °F 64% 30.18 in 6.2 mi NE 11.5 mph - N/A   Unknown
9:55 PM 69.8 °F 57.2 °F 64% 30.21 in 6.2 mi NE 11.5 mph - N/A   Unknown
10:25 PM 68.0 °F 57.2 °F 68% 30.21 in 6.2 mi NE 11.5 mph - N/A   Unknown
10:55 PM 68.0 °F 57.2 °F 68% 30.21 in 6.2 mi NE 10.4 mph - N/A   Unknown
11:00 PM 68 °F 58 °F 62% 30.23 in 19 mi NE 11.2 mph - -  
11:25 PM 68.0 °F 59.0 °F 73% 30.21 in 6.2 mi NE 11.5 mph - N/A   Unknown
11:55 PM 66.2 °F 59.0 °F 78% 30.21 in 6.2 mi NE 12.7 mph - N/A   Unknown